Track LEMUR 2 MIA-GRACE now! 10-day predictions LEMUR 2 MIA-GRACE is classified as:
1 41992U 17008AW 22136.45470561 .00023535 00000-0 70663-3 0 9990 2 41992 97.2704 202.4970 0004396 354.3644 5.7549 15.34429259291502